Regional Weather Roundup
Issued by NWS Huntsville, AL

Home | Current Version | Previous Version | Text Only | Print | Product List | Glossary On
Versions: 1 2 3 4 5 6 7 8 9 10 11 12 13 14 15 16 17 18 19 20 21 22 23 24 25 26 27 28 29 30 31 32 33 34 35 36 37 38 39 40 41 42 43 44 45 46 47 48 49 50
000
ASUS44 KHUN 291810
RWRHUN

WEATHER ROUNDUP FOR THE TENNESSEE VALLEY
NATIONAL WEATHER SERVICE HUNTSVILLE AL
1200 PM CST THU JAN 29 2015

ALZ001>004-291900-
NORTHWEST ALABAMA

CITY           SKY/WX    TMP DP  RH WIND       PRES   REMARKS
COURTLAND HCN    N/A     59 N/A N/A SW16        N/A
RUSSELLVILLE     N/A     61 N/A N/A MISG        N/A
SHOALS AIRPORT MOSUNNY   62  41  46 SW21G26   30.10F
6HR MIN TEMP:  48; 6HR MAX TEMP:  62; 6HR PCP:  0.01;

SHOALS TVA RES   N/A     61 N/A N/A MISG        N/A
$$

ALZ005>007-016-291900-
NORTH CENTRAL ALABAMA

CITY           SKY/WX    TMP DP  RH WIND       PRES   REMARKS
CULLMAN AG STN   N/A     57 N/A N/A SW13        N/A
DECATUR AP     MOSUNNY   59  43  55 SW14G21   30.12F
6HR MIN TEMP:  45; 6HR MAX TEMP:  59; 6HR PCP: TRACE;

HUNTSVILLE AP  PTSUNNY   58  41  53 SW17G25   30.11F
6HR MIN TEMP:  43; 6HR MAX TEMP:  60; 6HR PCP: TRACE;

HUN NWS/UAH      N/A     58  38  46 SW14        N/A
MERIDIANVILLE  MOSUNNY   59  32  36 SW17G26   30.11F
REDSTONE ARSN  CLOUDY    58  40  51 SW17G25   30.11F
$$

ALZ008>010-291900-
NORTHEAST ALABAMA

CITY           SKY/WX    TMP DP  RH WIND       PRES   REMARKS
ALBERTVILLE    MOSUNNY   54  41  62 S8        30.13F
FORT PAYNE     MOSUNNY   52  30  43 SW12      30.14F
SCOTTSBORO AP  MOSUNNY   54  32  43 SW15G22   30.14F
VALLEY HEAD      N/A     52 N/A N/A MISG        N/A
$$

TNZ076-096-097-291900-
SOUTHEASTERN MIDDLE TENNESSEE

CITY           SKY/WX    TMP DP  RH WIND       PRES   REMARKS
TULLAHOMA      SUNNY     57  36  44 SW21      30.07F
WINCHESTER     MOSUNNY   59  37  44 SW9       30.09F
$$

...SURROUNDING SITES...

CITY           SKY/WX    TMP DP  RH WIND       PRES   REMARKS
ATLANTA        PTSUNNY   53  27  36 SW9       30.23F
ANNISTON       PTSUNNY   58  32  37 SW13      30.20F
BIRMINGHAM     PTSUNNY   61  36  39 S17       30.19F
CHATTANOOGA    MOSUNNY   53  33  46 S10G22    30.14F
CORINTH        FAIR      63  45  51 SW13G21   30.08F
DALTON         CLOUDY    50  34  53 SE13      30.17F
GADSDEN        PTSUNNY   55  34  44 SW10G17   30.16F
GOLDEN TRNGL   MOSUNNY   64  48  55 SW12      30.14F
HALEYVILLE       N/A     60  45  57 SW14G21   30.14F
JACKSON TN     MOSUNNY   63  43  48 W17       30.07S
LEWISBURG      FAIR      61  37  40 SW15      30.06F
MEMPHIS        CLOUDY    63  44  50 W12G18    30.11F
NASHVILLE      MOSUNNY   62  38  40 SW14G21   30.03F
OXFORD MS      FAIR      59  46  63 SW9G18    30.13F
ROME           CLOUDY    53  33  46 S15G21    30.16F
SAVANNAH       SUNNY     61  41  48 SW6       30.09S
TUPELO         PTSUNNY   61  42  49 SW7       30.12F
TUSCALOOSA     MOSUNNY   64  44  48 SW15      30.18F
$$

...GULF COAST WEATHER...

CITY           SKY/WX    TMP DP  RH WIND       PRES   REMARKS
GULFPORT       SUNNY     68  51  54 S7        30.27F
PASCAGOULA     SUNNY     70  52  52 S9G17     30.27F
MOBILE         MOSUNNY   69  51  52 S14       30.27F
GULF SHORES    CLEAR     67  53  61 S8        30.28F
PENSACOLA      MOSUNNY   68  52  56 S12       30.27F
DESTIN         SUNNY     63  54  72 SE10      30.28F
PANAMA CITY    SUNNY     62  48  60 SE16      30.29F
APPALACHICOLA  SUNNY     62  45  53 S10       30.30F
$$



USA.gov is the U.S. government's official web portal to all federal, state and local government web resources and services.